Lexington Weather

Lexington, Massachusetts, USA

78°F
7/25/2024 12:33pm 
  • Lexington Conditions: Mostly cloudy
  • Temperature: 78.1°F / 25.6°CWarmer 1.5°F than last hour.
  • Dew Point: 72.5°FIncreased 0.4°Fsince last hour.
  • Relative Humidity: 83%Decreased 3.0% since last hour.
  • Wind: Wind from SW SW Calm, 10-min avg: 3 mph, gust: 7 mph
  • Barometer: 29.93 inFalling 0.02  inHg/hr Falling Slowly
  • Visibility: 10 miles
  • Rain Today: 0.00 in
  •   

Regional Weather Roundup
for Boston, MA

        
000
ASUS41 KBOX 191810
RWRBOX

REGIONAL WEATHER ROUNDUP
NATIONAL WEATHER SERVICE BOSTON/NORTON MA
200 PM EDT FRI JUL 19 2024

NOTE:  "FAIR" INDICATES FEW OR NO CLOUDS BELOW 12,000 FEET WITH NO 
SIGNIFICANT WEATHER AND/OR OBSTRUCTIONS TO VISIBILITY.

MAZALL-191900-
EASTERN MASSACHUSETTS
  
CITY           SKY/WX    TMP DP  RH WIND       PRES   REMARKS
BOSTON         MOSUNNY   77  56  48 E13       30.07F                  
6HR MIN TEMP:  70; 6HR MAX TEMP:  77;                                

BEVERLY        SUNNY     77  56  48 SE12      30.07S                  
LAWRENCE       SUNNY     80  55  42 VRB3      30.08F                  
BEDFORD        MOSUNNY   81  56  42 MISG      30.06S                  
NORWOOD        MOSUNNY   83  61  47 W9G16     30.07F                  
MARSHFIELD     SUNNY     73  54  49 E7        30.08S                  
PLYMOUTH       SUNNY     79  56  45 NE8       30.07F                  
TAUNTON        MOSUNNY   84  56  38 VRB5      30.07S                  
NEW BEDFORD    SUNNY     82  57  42 CALM      30.07S                  
$$

MAZALL-191900-
CAPE COD AND THE ISLANDS
  
CITY           SKY/WX    TMP DP  RH WIND       PRES   REMARKS
FALMOUTH       SUNNY     77  61  57 NE6       30.09S                  
HYANNIS        SUNNY     75  57  53 N9        30.07S                  
CHATHAM        SUNNY     76  58  53 NE8       30.09R                  
PROVINCETOWN   SUNNY     74  57  55 N7        30.10S                  
NANTUCKET      SUNNY     78  61  55 MISG      30.08S                  
MARTHAS VNYRD  MOSUNNY   77  62  59 S8        30.08S                  
$$
 
MAZALL-191900-
CENTRAL AND WESTERN MASSACHUSETTS
  
CITY           SKY/WX    TMP DP  RH WIND       PRES   REMARKS
WORCESTER      PTSUNNY   77  55  46 N6        30.11S                  
6HR MIN TEMP:  65; 6HR MAX TEMP:  78;                                

FITCHBURG      MOSUNNY   81  56  42 N10       30.08F                  
ORANGE           N/A     80  52  37 NE8G20    30.10F                  
SPRINGFIELD    MOSUNNY   80  56  44 NW7       30.06F                  
WESTFIELD      SUNNY     81  56  42 NE6       30.08F                  
NORTH ADAMS    SUNNY     76  57  51 NW9       30.12F                  
PITTSFIELD     MOSUNNY   75  54  47 NW7       30.13S                  
$$
 
RIZALL-191900-
RHODE ISLAND
  
CITY           SKY/WX    TMP DP  RH WIND       PRES   REMARKS
PROVIDENCE     MOSUNNY   80  57  45 SW8       30.08S                  
6HR MIN TEMP:  69; 6HR MAX TEMP:  80;                                

NEWPORT        MOSUNNY   77  59  53 VRB7      30.08F                  
BLOCK ISLAND   SUNNY     77  59  53 SW9         N/A                   
SMITHFIELD     PTSUNNY   78  60  53 NW6       30.10S                  
WESTERLY       SUNNY     78  59  51 SW9       30.09S                  
$$
 
CTZALL-191900-
CONNECTICUT
  
CITY           SKY/WX    TMP DP  RH WIND       PRES   REMARKS
BRADLEY INTL   MOSUNNY   82  56  40 VRB6      30.09F                  
6HR MIN TEMP:  70; 6HR MAX TEMP:  82;                                

HARTFORD       SUNNY     80  57  45 NE5       30.08F                  
PLAINVILLE     CLEAR     81  56  43 VRB3      30.09F                  
BRIDGEPORT     SUNNY     79  62  56 S12       30.10F                  
DANBURY        MOSUNNY   80  57  45 VRB3      30.13S                  
GROTON         MOSUNNY   77  64  64 SW13      30.08S                  
NEW HAVEN      MOSUNNY   80  64  58 SW9       30.10S                  
CHESTER        SUNNY     81  55  41 VRB3      30.11S                  
MERIDEN        PTSUNNY   81  56  42 CALM      30.09F                  
WILLIMANTIC    SUNNY     78  56  46 VRB7      30.10S                  
OXFORD         MOSUNNY   75  59  57 VRB5      30.13F                  
$$

MEZ002-015-021-024-NHZ003-005-008-011-012-014-VTZ005-008-191900-
NORTHERN NEW ENGLAND
  
CITY           SKY/WX    TMP DP  RH WIND       PRES   REMARKS
PORTLAND ME    MOSUNNY   79  59  50 S8        30.04F                  
6HR MIN TEMP:  68; 6HR MAX TEMP:  81;                                

BANGOR ME      MOSUNNY   81  56  42 VRB5      30.00F                  
CONCORD NH     SUNNY     82  54  37 N9        30.06F                  
MANCHESTER NH  MOSUNNY   84  52  33 VRB5      30.05F                  
NASHUA NH      MOSUNNY   81  54  39 W9        30.07F                  
PORTSMOUTH NH  MOSUNNY   82  56  41 W5        30.04F                  
JAFFREY NH     PTSUNNY   79  53  40 W3        30.11S                  
KEENE NH       MOSUNNY   78  54  43 NW6       30.09S                  
BURLINGTON VT  PTSUNNY   78  53  41 SW3       30.09F                  
MT. WASHINGTON PTSUNNY   50  45  81 W20G25      N/A                   
$$

NYZ052-076-191900-
EASTERN NEW YORK
  
CITY           SKY/WX    TMP DP  RH WIND       PRES   REMARKS
ALBANY         MOSUNNY   79  55  43 NW6       30.12F                  
6HR MIN TEMP:  68; 6HR MAX TEMP:  81;                                

NEW YORK CITY  MOSUNNY   82  53  36 W7        30.09F                  
6HR MIN TEMP:  71; 6HR MAX TEMP:  82;                                

$$
 
ANZALL-191900-
MARINE OBSERVATIONS
  
STATION/POSITION TIME  TEMP    WIND        PRES    VSBY  WAVE
                       AIR SEA DIR/SP/G                  HT/PER
                 (UTC) (F)     (DEG/KT/KT) (MB)    (MI)  (FT/S)
BOSTON BUOY      1740   68 64  130/  4/  4 1019.0F
BUZZARDS BAY     1700   71     230/  6/  6 1019.1R
NANTUCKET SOUND  1750   72 76   80/  2/  4 1018.4R         1/ 4
MASS BAY-STELLWA 1604   67 64  200/  4/  6 1018.8R  1 7/8  2/ 8
ISLE OF SHOALS   1700   70     180/ 14/ 15 1017.5S
S OF BLOCK IS    1726      74                N/A           3/ 8
$$

......................KEY.........................
  SKY/WX - SKY CONDITION/PRESENT WEATHER
  TMP    - TEMPERATURE IN FAHRENHEIT
  DWPT   - DEWPOINT IN FAHRENHEIT
  RH     - RELATIVE HUMIDITY IN PERCENT
  WIND   - DIRECTION AND SPEED IN MPH
  PRES   - MEAN SEA LEVEL PRESSURE IN INCHES OF HG
  WCI    - WIND CHILL INDEX
  VSB    - VISIBILITY IN MILES
  HX     - HEAT INDEX
  TC     - TEMPERATURE IN CELSIUS
  VRB    - VARIABLE WIND DIRECTION
  N/A    - NOT AVAILABLE
  
      

Other recent Regional Weather Roundups

Thu Jul 25, 12:10pm EDT

Thu Jul 25, 11:10am EDT

Thu Jul 25, 10:10am EDT

Thu Jul 25, 9:10am EDT

Thu Jul 25, 8:10am EDT

Thu Jul 25, 7:10am EDT

Thu Jul 25, 6:10am EDT

Thu Jul 25, 5:10am EDT

Thu Jul 25, 4:10am EDT

Thu Jul 25, 3:10am EDT

Thu Jul 25, 2:10am EDT

Thu Jul 25, 1:10am EDT

Thu Jul 25, 12:10am EDT

Wed Jul 24, 11:10pm EDT

Wed Jul 24, 10:10pm EDT

Wed Jul 24, 9:10pm EDT

Wed Jul 24, 8:10pm EDT

Wed Jul 24, 7:10pm EDT

Wed Jul 24, 6:10pm EDT

Wed Jul 24, 5:10pm EDT

Wed Jul 24, 4:10pm EDT

Wed Jul 24, 3:10pm EDT

Wed Jul 24, 2:10pm EDT

Wed Jul 24, 1:10pm EDT

Wed Jul 24, 12:10pm EDT

Wed Jul 24, 11:10am EDT

Wed Jul 24, 10:10am EDT

Wed Jul 24, 9:10am EDT

Wed Jul 24, 8:10am EDT

Wed Jul 24, 7:10am EDT

Wed Jul 24, 6:10am EDT

Wed Jul 24, 5:10am EDT

Wed Jul 24, 4:10am EDT

Wed Jul 24, 3:10am EDT

Wed Jul 24, 2:10am EDT

Wed Jul 24, 1:10am EDT

Wed Jul 24, 12:10am EDT

Tue Jul 23, 11:10pm EDT

Tue Jul 23, 10:10pm EDT

Tue Jul 23, 9:10pm EDT

Tue Jul 23, 8:10pm EDT

Tue Jul 23, 7:10pm EDT

Tue Jul 23, 6:10pm EDT

Tue Jul 23, 5:10pm EDT

Tue Jul 23, 4:10pm EDT

Tue Jul 23, 3:10pm EDT

Tue Jul 23, 2:10pm EDT

Tue Jul 23, 1:10pm EDT

Tue Jul 23, 12:10pm EDT

Tue Jul 23, 11:10am EDT

Tue Jul 23, 10:10am EDT

Tue Jul 23, 10:10am EDT

Tue Jul 23, 9:10am EDT

Tue Jul 23, 8:10am EDT

Tue Jul 23, 7:10am EDT

Tue Jul 23, 6:10am EDT

Tue Jul 23, 5:10am EDT

Tue Jul 23, 4:10am EDT

Tue Jul 23, 3:10am EDT

Tue Jul 23, 2:10am EDT

Tue Jul 23, 1:10am EDT

Tue Jul 23, 12:10am EDT

Mon Jul 22, 11:10pm EDT

Mon Jul 22, 10:10pm EDT

Mon Jul 22, 9:10pm EDT

Mon Jul 22, 8:10pm EDT

Mon Jul 22, 7:10pm EDT

Mon Jul 22, 6:10pm EDT

Mon Jul 22, 5:10pm EDT

Mon Jul 22, 4:10pm EDT

Mon Jul 22, 3:10pm EDT

Mon Jul 22, 2:10pm EDT

Mon Jul 22, 1:10pm EDT

Mon Jul 22, 12:10pm EDT

Mon Jul 22, 11:10am EDT

Mon Jul 22, 10:10am EDT

Mon Jul 22, 9:10am EDT

Mon Jul 22, 8:10am EDT

Mon Jul 22, 7:10am EDT

Mon Jul 22, 6:10am EDT

Mon Jul 22, 5:10am EDT

Mon Jul 22, 4:10am EDT

Mon Jul 22, 3:10am EDT

Mon Jul 22, 2:10am EDT

Mon Jul 22, 1:10am EDT

Mon Jul 22, 12:10am EDT

Sun Jul 21, 11:10pm EDT

Sun Jul 21, 10:10pm EDT

Sun Jul 21, 9:10pm EDT

Sun Jul 21, 8:10pm EDT

Sun Jul 21, 7:10pm EDT

Sun Jul 21, 6:10pm EDT

Sun Jul 21, 5:10pm EDT

Sun Jul 21, 4:10pm EDT

Sun Jul 21, 3:10pm EDT

Sun Jul 21, 2:10pm EDT

Sun Jul 21, 1:10pm EDT

Sun Jul 21, 12:10pm EDT

Sun Jul 21, 11:10am EDT

Sun Jul 21, 10:10am EDT

Sun Jul 21, 9:10am EDT

Sun Jul 21, 8:10am EDT

Sun Jul 21, 7:10am EDT

Sun Jul 21, 6:10am EDT

Sun Jul 21, 5:10am EDT

Sun Jul 21, 4:10am EDT

Sun Jul 21, 3:10am EDT

Sun Jul 21, 2:10am EDT

Sun Jul 21, 1:10am EDT

Sun Jul 21, 12:10am EDT

Sat Jul 20, 11:10pm EDT

Sat Jul 20, 10:10pm EDT

Sat Jul 20, 9:10pm EDT

Sat Jul 20, 8:10pm EDT

Sat Jul 20, 7:10pm EDT

Sat Jul 20, 6:10pm EDT

Sat Jul 20, 5:10pm EDT

Sat Jul 20, 4:10pm EDT

Sat Jul 20, 3:10pm EDT

Sat Jul 20, 2:10pm EDT

Sat Jul 20, 1:10pm EDT

Sat Jul 20, 12:10pm EDT

Sat Jul 20, 11:10am EDT

Sat Jul 20, 10:10am EDT

Sat Jul 20, 9:10am EDT

Sat Jul 20, 8:10am EDT

Sat Jul 20, 7:10am EDT

Sat Jul 20, 6:10am EDT

Sat Jul 20, 5:10am EDT

Sat Jul 20, 4:10am EDT

Sat Jul 20, 3:10am EDT

Sat Jul 20, 2:10am EDT

Sat Jul 20, 1:10am EDT

Sat Jul 20, 12:10am EDT

Fri Jul 19, 11:10pm EDT

Fri Jul 19, 10:10pm EDT

Fri Jul 19, 9:10pm EDT

Fri Jul 19, 8:10pm EDT

Fri Jul 19, 7:10pm EDT

Fri Jul 19, 6:10pm EDT

Fri Jul 19, 5:10pm EDT

Fri Jul 19, 4:10pm EDT

Fri Jul 19, 3:10pm EDT

Fri Jul 19, 1:10pm EDT

Fri Jul 19, 12:10pm EDT

Fri Jul 19, 11:10am EDT

Fri Jul 19, 10:10am EDT

Fri Jul 19, 9:10am EDT

Fri Jul 19, 8:10am EDT

Fri Jul 19, 7:10am EDT

Fri Jul 19, 6:10am EDT

Fri Jul 19, 5:10am EDT

Fri Jul 19, 4:10am EDT

Fri Jul 19, 3:10am EDT

Fri Jul 19, 2:10am EDT

Fri Jul 19, 1:10am EDT

Fri Jul 19, 12:10am EDT

Thu Jul 18, 11:10pm EDT

Thu Jul 18, 10:10pm EDT

Thu Jul 18, 9:10pm EDT

Thu Jul 18, 8:10pm EDT

Thu Jul 18, 7:10pm EDT

Thu Jul 18, 6:10pm EDT

Thu Jul 18, 5:10pm EDT

Thu Jul 18, 4:10pm EDT

Thu Jul 18, 3:10pm EDT

Thu Jul 18, 2:10pm EDT

Thu Jul 18, 1:10pm EDT